Location: Unspecified
(41.5000°N, 0.0000°E)
Time: 19:30:41
(UTC+00:00)

deb Explorer IX - Pass Details

Date: 22 June 2019
Orbit: 539 x 1112 km, 38.8° (Epoch: 19 July)

Event Time Altitude Azimuth Distance (km) Brightness Sun altitude
Rises 13:17:40 0° 230° (SW) 3,750 ? 66.0°
Reaches altitude 10° 13:20:24 10° 224° (SW) 2,860 ? 65.6°
Maximum altitude 13:27:01 43° 155° (SSE) 1,498 ? 64.7°
Drops below altitude 10° 13:33:54 10° 87° (E) 2,968 ? 63.7°
Sets 13:36:47 0° 81° (E) 3,905 ? 63.2°
